Location: Nelson
(47.1935°N, 121.0537°W)
Time: 22:54:55
(UTC+00:00)

Envisat - Pass Details

Date: 05 December 2022
Orbit: 763 x 765 km, 98.2° (Epoch: 08 February)

Event Time Altitude Azimuth Distance (km) Brightness Sun altitude
Rises 11:25:45 0° 23° (NNE) 3,245 6.6 -41.3°
Reaches altitude 10° 11:28:25 10° 36° (NE) 2,313 5.9 -40.9°
Enters shadow 11:28:39 11° 37° (NE) 2,238 5.8 -40.8°
